Location: Unspecified
(34.4500°N, 0.0000°E)
Time: 15:10:28
(UTC+00:00)

Envisat - Pass Details

Date: 12 March 2021
Orbit: 764 x 766 km, 98.1° (Epoch: 17 April)

Event Time Altitude Azimuth Distance (km) Brightness Sun altitude
Rises 04:27:54 0° 32° (NNE) 3,234 6.9 -22.7°
Reaches altitude 10° 04:30:59 10° 52° (NE) 2,303 6.4 -22.1°
Maximum altitude 04:34:19 18° 93° (E) 1,833 5.9 -21.4°
Drops below altitude 10° 04:37:38 10° 135° (SE) 2,293 5.9 -20.7°
Sets 04:40:41 0° 154° (SSE) 3,213 6.4 -20.1°
